DUCHIFAT-1
1 40021U 14033M 19276.74389568 .00000523 00000-0 59150-4 0 9997
2 40021 97.9238 201.6924 0014248 59.8043 300.4584 14.90693674287492
NANOSATCBR1
1 40024U 14033Q 19276.29009883 .00000315 00000-0 38678-4 0 9990
2 40024 97.9121 198.3823 0013579 64.9320 295.3305 14.89898131287314
EO-79
1 40025U 14033R 19276.34987797 .00000267 00000-0 34340-4 0 9994
2 40025 97.9033 195.8498 0013849 70.4585 289.8126 14.88990093287196
DTUSAT-2
1 40030U 14033W 19276.24080719 .00000264 00000-0 34318-4 0 9999
2 40030 97.8942 193.7182 0013308 66.9810 293.2809 14.88578235287106
EO-80
1 40032U 14033Y 19276.31764714 .00000289 00000-0 37116-4 0 9999
2 40032 97.8949 193.7960 0013242 67.4357 292.8260 14.88522598287105
ANTELSAT
1 40034U 14033AA 19276.68190088 .00000188 00000-0 35075-4 0 9998
2 40034 97.7451 139.2342 0059974 110.6253 250.1402 14.74140207284437
VELOX-1
1 40057U 14034E 19276.73266607 .00000300 00000-0 49531-4 0 9999
2 40057 98.2489 42.2093 0009896 248.8678 111.1482 14.77716062283577
DAURIA DX 1
1 40071U 14037C 19276.68853811 .00000085 00000-0 18497-4 0 9998
2 40071 98.4400 76.1211 0007372 239.3488 120.6997 14.81294461283099
UKUBE-1
1 40074U 14037F 19276.69716353 .00000239 00000-0 35831-4 0 9993
2 40074 98.4478 84.8046 0003274 218.4500 141.6483 14.84103949283523
HODOYOSHI-1
1 40299U 14070B 19276.78404145 .00000760 00000-0 34746-4 0 9995
2 40299 97.3432 354.2852 0013763 31.2869 91.2832 15.23461141272578
CHUBUSAT-1
1 40300U 14070C 19276.82392669 .00000781 00000-0 36846-4 0 9996
2 40300 97.3189 348.2554 0021098 40.8127 93.2248 15.22189576272318
QSAT-EOS
1 40301U 14070D 19276.78934830 .00002109 00000-0 83645-4 0 9999
2 40301 97.3208 351.8443 0026390 23.7892 97.9060 15.26173440272621
FIREBIRD FU3
1 40377U 15003B 19276.73477623 .00002085 00000-0 84561-4 0 9997
2 40377 99.1201 278.9537 0127457 93.8450 267.7362 15.19075310258179
FIREBIRD FU4
1 40378U 15003C 19276.78725208 .00002063 00000-0 83630-4 0 9990
2 40378 99.1205 279.0994 0127669 93.5541 268.0299 15.19085289258186
GRIFEX
1 40379U 15003D 19276.75039414 .00001360 00000-0 61217-4 0 9991
2 40379 99.1216 272.4623 0135748 113.7380 247.8155 15.15688158257802
NO-84
1 40654U 15025D 19276.33506000 .00015139 00000 0 20507-3 0 7380
2 40654 54.9910 45.7824 0129644 239.5038 119.3118 15.48636956128968
NO-83
1 40655U 15025E 19276.49926895 .00178906 23262-4 44398-3 0 9205
2 40655 54.9606 261.7312 0032543 337.0232 22.9347 15.94600828130667
DEORBITSAIL
1 40719U 15032E 19276.23731604 .00000379 00000-0 61243-4 0 9992
2 40719 97.8942 165.8249 0015863 326.9969 33.0250 14.76802974227983
NUDT-PHONESAT
1 40900U 15049B 19276.74224050 .00002389 00000-0 10414-3 0 9996
2 40900 97.4377 285.0454 0012833 161.6502 285.4269 15.23093788223951
XW-2A
1 40903U 15049E 19276.72987615 .00002389 00000-0 57620-4 0 9991
2 40903 97.3269 320.0531 0014915 114.5250 9.1244 15.42145759226740
XW-2C
1 40906U 15049H 19276.74754833 .00000660 00000-0 38027-4 0 9990
2 40906 97.4713 277.0762 0014305 182.0541 264.7389 15.15767413223216
XW-2D
1 40907U 15049J 19276.71183563 .00000691 00000-0 39396-4 0 9998
2 40907 97.4689 276.7213 0014030 179.5398 268.0446 15.15963352223224
LILACSAT-2
1 40908U 15049K 19276.74067282 .00000548 00000-0 33882-4 0 9996
2 40908 97.4829 275.4595 0015308 187.3612 259.5607 15.13858815223000
XW-2E
1 40909U 15049L 19276.76944995 .00000986 00000-0 51848-4 0 9992
2 40909 97.4611 279.7861 0013597 173.0702 272.6416 15.17930520223432
XW-2F
1 40910U 15049M 19276.70778816 .00000941 00000-0 50275-4 0 9999
2 40910 97.4651 278.8777 0014791 171.6110 300.2699 15.17442842223243
XW-2B
1 40911U 15049N 19276.74930953 .00000696 00000-0 39743-4 0 9990
2 40911 97.4713 277.4256 0013720 179.6091 267.0802 15.15891422223120
DCBB
1 40912U 15049P 19276.70777573 .00001181 00000-0 58266-4 0 9995
2 40912 97.4508 282.6879 0015396 153.7519 320.6237 15.19773299223562
TW-1C
1 40926U 15051B 19276.81451512 .00015723 00000-0 21330-3 0 9995
2 40926 97.1240 322.9164 0006929 348.2634 101.2097 15.57704302226823
TW-1A
1 40928U 15051D 19276.76644499 .00003617 00000-0 88687-4 0 9997
2 40928 97.1374 305.6856 0012248 50.0514 39.4412 15.41280789225660
IO-86
1 40931U 15052B 19276.74250103 .00000763 00000-0 17189-4 0 9993
2 40931 5.9999 13.3100 0012620 235.5951 124.3004 14.76616124217113
LQSat
1 40958U 15057A 19276.20735339 .00000014 00000-0 98329-5 0 9992
2 40958 97.8889 342.4731 0016795 258.4918 101.4405 14.73090420214480
AO-85
1 40967U 15058D 19276.44304442 .00000058 00000 0 25315-4 0 8244
2 40967 64.7786 194.2136 0187215 167.9962 192.5700 14.75996957123491
ATHENOXAT-1
1 41168U 15077C 19276.85215546 .00002114 00000-0 76517-4 0 9999
2 41168 14.9878 150.6508 0011429 144.2630 215.8457 15.13805167210249
ChubuSat-2
1 41338U 16012B 19276.15124510 .00000384 00000-0 23183-4 0 9999
2 41338 31.0025 188.1914 0013656 77.9646 282.2519 15.00186720198911
ChubuSat-3
1 41339U 16012C 19276.77364422 .00000372 00000-0 22188-4 0 9997
2 41339 31.0104 182.1911 0013366 91.7498 268.4668 15.00359902199004
Horyu-4
1 41340U 16012D 19276.08450339 .00000565 00000-0 36181-4 0 9998
2 41340 31.0043 176.9502 0013848 105.2251 254.9917 15.01322318199018
OUFTI-1
1 41458U 16025C 19276.83270690 .00000770 00000-0 43240-4 0 9997
2 41458 98.1004 9.1244 0165717 357.3215 2.7105 15.06055992188698
e-st@r-II
1 41459U 16025D 19276.80867979 .00001526 00000-0 81636-4 0 9998
2 41459 98.1007 8.6994 0166882 358.7102 1.3672 15.05680138188668
AAUSAT4
1 41460U 16025E 19276.84723364 .00002040 00000-0 10526-3 0 9994
2 41460 98.0955 10.2574 0156522 350.3602 9.4597 15.07657581188817
LO-87
1 41557U 16033B 19276.83719601 .00001330 00000-0 52258-4 0 9998
2 41557 97.4151 3.7108 0012114 280.3964 79.5910 15.27410378186443
NuSat2
1 41558U 16033C 19276.80348267 .00001424 00000-0 52685-4 0 9990
2 41558 97.4183 5.0736 0011157 280.5115 79.4868 15.29323454186505
Lapan A3
1 41603U 16040E 19276.77596727 .00000125 00000-0 89908-5 0 9997
2 41603 97.3489 332.7811 0014304 30.1919 79.7242 15.19747410182007
Swayam
1 41607U 16040J 19276.40396173 .00001514 00000-0 66193-4 0 9997
2 41607 97.3549 336.4132 0013873 23.1865 336.9995 15.23519876182121
Pratham
1 41783U 16059A 19276.29314171 .00000028 00000-0 14718-4 0 9992
2 41783 98.0562 333.4593 0034527 50.4778 309.9467 14.63011511161130
AlSat 1N
1 41789U 16059G 19276.73744827 .00000086 00000-0 25339-4 0 9997
2 41789 98.0598 336.1241 0029028 38.7029 321.6249 14.64264923161310
ScatSat
1 41790U 16059H 19276.68221579 .00000031 00000-0 18749-4 0 9994
2 41790 98.1988 319.1298 0005914 4.8204 355.3041 14.50889355159842
TY-1
1 41844U 16066D 19276.70363566 .00000925 00000-0 40539-4 0 9992
2 41844 97.4061 282.8224 0015176 166.0210 306.0630 15.24414624160990
Pegasus-1
1 41846U 16066F 19275.60178963 .00000213 00000-0 43875-4 0 9993
2 41846 098.7013 317.4343 0366252 283.5684 072.4961 14.37621443151773
CAS-2T
1 41847U 16066G 19276.20684950 .00000040 00000-0 17475-4 0 9994
2 41847 98.6951 318.5746 0364748 278.0478 77.9482 14.38008264152300
EO-88
1 42017U 17008BX 19276.14838863 .00001678 00000-0 68551-4 0 9997
2 42017 97.3932 342.1025 0007225 142.5569 217.6174 15.25754171146157
nSIGHT1
1 42726U 98067MF 19276.80958355 .00030805 00000-0 20051-3 0 9996
2 42726 51.6331 119.2855 0004640 220.2158 139.8499 15.75632803134682
CAS-4B
1 42759U 17034B 19276.73491567 .00000278 00000-0 30449-4 0 9990
2 42759 43.0212 2.8500 0011604 212.3263 284.5273 15.09644555127013
CAS-4A
1 42761U 17034D 19276.76008887 .00000312 00000-0 32491-4 0 9993
2 42761 43.0202 2.1782 0011993 213.0977 291.1908 15.09722234127011
